Regional Weather Roundup
Issued by NWS

Home | Current Version | Previous Version | Graphics & Text | Print | Product List | Glossary On
Versions: 1 2 3 4 5 6 7 8 9 10 11 12 13 14 15 16 17 18 19 20 21 22 23 24 25 26 27 28 29 30 31 32 33 34 35 36 37 38 39 40 41 42 43 44 45 46 47 48 49 50
000
ASUS43 KIND 292109
RWRIN

WEATHER ROUNDUP FOR INDIANA
NATIONAL WEATHER SERVICE INDIANAPOLIS IN
500 PM EDT FRI AUG 29 2014

NOTE: "FAIR" INDICATES FEW OR NO CLOUDS BELOW 12,000 FEET WITH NO
SIGNIFICANT WEATHER AND/OR OBSTRUCTIONS TO VISIBILITY.

* - STATION DOES NOT REPORT WEATHER SUCH AS PRECIPITATION OR FOG.

+ - STATION NOT QUALITY CONTROLLED BY THE NATIONAL WEATHER SERVICE.
    USE DATA WITH CAUTION...ESPECIALLY DEWPOINT AND RELATIVE
    HUMIDITY OBSERVATIONS.

INZ001>003-010>013-019-020-292200-
NORTHWEST INDIANA

CITY           SKY/WX    TMP DP  RH WIND       PRES   REMARKS
GARY /AIRPORT/ CLOUDY    82  72  69 SW8       29.93F
KNOX *+        MOSUNNY   80  71  72 SE9G18    29.95F
LA PORTE +     PTSUNNY   78  71  81 SE9G16    29.97F
MICHIGAN CITY+ MOSUNNY   79  68  69 S8        29.96S
MONTICELLO +   SUNNY     85  74  70 E7        29.94F
RENSSELAER +   MOSUNNY   81  75  83 SE6       29.93F
VALPARAISO     MOSUNNY   80  71  74 SE9       29.96F

$$

LMZ046-743>745-292200-
SOUTHERN LAKE MICHIGAN

STATION/POSITION TIME  TEMP WIND        PRES
                       AIR  DIR/SP/G
                 (UTC) (F)  (DEG/KT/KT) (MB)
MICHIGAN CITY    2100   79  130/ 12/ 16   N/A

$$

INZ004-005-014>016-021>024-292200-
NORTH CENTRAL INDIANA

CITY           SKY/WX    TMP DP  RH WIND       PRES   REMARKS
ELKHART        LGT RAIN  77  72  83 CALM      29.99F
GOSHEN         PTSUNNY   81  70  69 SE8       29.99F
LOGANSPORT +   SUNNY     81  68  65 SE9       29.97F
PERU/GRISSOM   SUNNY     82  73  75 SE7       29.98F
ROCHESTER +    PTSUNNY   84  72  65 SE8       29.98F
SOUTH BEND     LGT RAIN  76  73  91 SE12      29.98F
WARSAW +       PTSUNNY   81  70  69 SE6       30.00S

$$

INZ006>009-017-018-025>027-292200-
NORTHEAST INDIANA

CITY           SKY/WX    TMP DP  RH WIND       PRES   REMARKS
ANGOLA *+      SUNNY     82  68  61 S9        30.02S
AUBURN +       SUNNY     81  64  57 CALM      30.03S
FORT WAYNE     PTSUNNY   81  69  67 SE8       30.02S
HUNTINGTON +   MOSUNNY   82  70  68 SE7       30.00S

$$

INZ028-029-035-036-043>045-051>053-292200-
WEST CENTRAL INDIANA

CITY           SKY/WX    TMP DP  RH WIND       PRES   REMARKS
GREENCASTLE +  MOSUNNY   81  72  74 CALM      29.96F
LAFAYETTE      MOSUNNY   84  73  69 S14       29.93F
TERRE HAUTE    MOSUNNY   85  71  63 S7        29.92F

$$

INZ030>032-037>040-046>048-054>057-064-065-292200-
CENTRAL INDIANA

CITY           SKY/WX    TMP DP  RH WIND       PRES   REMARKS
CP ATTERBURY + MOSUNNY   88  72  58 S9        29.98S
COLUMBUS       MOSUNNY   90  72  55 SE12      29.97F HX  96
FRANKFORT +    MOSUNNY   79  73  81 SE5       29.98F
INDIANAPOLIS   MOSUNNY   86  71  60 SE14      29.95F
-EAGLE CREEK   MOSUNNY   85  69  58 S8        29.96F
KOKOMO *+      SUNNY     82  70  65 SE10      29.98F
MARION +       SUNNY     83  67  58 SE7       30.00F
MT COMFORT *+  MOSUNNY   86  66  51 S10G16    29.99F
SHELBYVILLE    MOSUNNY   88  71  57 SE8       29.98F
ZIONSVILLE +   MOSUNNY   82  70  67 SE5       29.98F

$$

INZ033-034-041-042-049-050-058-059-292200-
EAST CENTRAL INDIANA

CITY           SKY/WX    TMP DP  RH WIND       PRES   REMARKS
MUNCIE         SUNNY     83  69  62 SE10      30.01S

$$

INZ060-061-067>069-081>083-085>088-292200-
SOUTHWEST INDIANA

CITY           SKY/WX    TMP DP  RH WIND       PRES   REMARKS
EVANSVILLE     PTSUNNY   90  65  43 S9        29.93F
WASHINGTON +   MOSUNNY   87  71  59 SE12      29.92F

$$

INZ062-063-066-070>080-084-089>092-292200-
SOUTH CENTRAL AND SOUTHEAST INDIANA

CITY           SKY/WX    TMP DP  RH WIND       PRES   REMARKS
BLOOMINGTON    MOSUNNY   87  70  56 S9        29.96F

$$



USA.gov is the U.S. government's official web portal to all federal, state and local government web resources and services.